Wind_Speed
43 43 43 43 42 41 40 39 39 39 38 37 37 38 38 37 38 38 38 37 37 38 38 38 38 38 38 39 39 39 40 41 40 41 43 43 42 41 38 33 34 37 37 36 38 41 43 46 45 43 46 54 56 52 45 39 37 36 34 33 32 33 34 34 34 36 37 37 35 35 35 35 36 36 36 35 34 34 35 36 37 37 36 36 35
42 41 41 41 40 39 39 39 38 36 35 35 36 36 35 36 38 39 38 36 36 36 36 36 36 37 37 37 37 37 37 38 37 37 39 40 40 40 38 35 32 34 36 37 39 42 44 45 44 40 41 46 51 50 45 40 38 38 37 35 33 33 34 35 37 38 37 36 35 35 34 34 34 35 35 35 34 34 34 35 37 37 37 35 33
41 40 39 39 39 38 38 38 36 35 33 33 34 35 35 36 36 36 36 34 34 35 35 35 35 35 36 36 35 34 35 35 35 34 34 35 36 36 36 36 36 35 37 40 42 44 45 46 44 40 37 39 43 45 43 39 37 38 39 38 36 35 36 37 38 37 36 36 35 33 32 32 32 33 34 34 34 34 34 35 37 37 36 35 33
41 39 38 38 37 37 36 36 35 35 34 34 34 35 35 35 34 33 32 31 32 34 34 34 33 33 33 33 32 32 32 32 33 33 32 31 32 33 33 35 37 37 36 40 44 45 46 47 46 43 40 38 38 39 39 37 35 36 40 42 40 38 37 37 38 37 36 36 33 32 31 30 29 30 31 31 32 33 33 35 36 36 36 35 34
40 39 37 36 36 35 34 34 34 35 34 35 35 34 33 32 31 29 28 28 29 32 32 31 30 30 29 29 29 30 30 30 31 31 32 32 31 32 34 35 37 36 36 40 45 47 47 46 46 47 45 42 39 38 38 37 35 37 42 44 43 41 40 39 39 39 39 36 34 32 31 29 28 28 27 27 29 31 32 34 35 35 34 34 34
40 39 37 36 35 34 33 33 34 34 34 34 33 31 29 29 27 26 26 26 26 27 28 28 27 27 28 27 27 27 27 29 30 30 32 33 33 33 35 36 36 36 36 39 45 49 49 47 46 48 47 44 41 40 40 38 38 40 43 44 45 44 41 40 41 41 40 37 35 33 30 28 27 26 24 23 24 27 29 32 33 34 34 34 34
41 39 37 36 35 34 33 34 34 34 33 33 30 28 27 26 25 24 25 25 25 25 24 25 26 26 26 26 26 26 25 25 27 28 30 32 33 33 34 36 36 36 36 39 44 49 50 48 46 47 46 43 40 40 42 42 42 42 43 43 45 44 42 42 43 43 40 38 35 34 32 29 26 24 24 23 23 24 26 28 28 31 33 34 35
41 40 37 35 34 33 33 33 32 32 32 30 28 25 25 25 23 22 21 22 24 25 23 24 25 24 23 24 24 25 24 23 23 25 28 30 31 32 33 35 36 36 36 39 43 47 49 47 46 47 46 42 40 41 42 43 44 44 43 43 44 43 44 44 43 41 39 37 36 34 32 30 28 25 25 25 24 25 25 23 23 27 31 34 35
41 40 37 35 33 33 33 33 31 30 29 28 26 25 24 22 20 20 18 18 20 23 22 21 21 19 19 21 23 24 24 24 24 25 27 29 29 30 31 32 34 34 35 38 41 44 46 47 47 48 47 44 42 41 40 41 43 45 44 43 43 43 45 45 43 40 38 37 37 36 33 31 30 28 26 26 26 26 24 21 22 25 28 31 34
39 39 37 35 33 33 32 32 30 28 27 27 26 24 23 20 19 19 19 18 20 21 20 18 17 15 16 18 20 22 23 24 24 24 26 27 28 28 27 27 29 31 32 35 38 42 45 47 48 48 49 46 43 41 40 40 42 44 43 43 42 42 44 44 43 41 40 38 38 37 34 31 30 30 28 26 27 26 24 22 23 25 26 29 33
38 38 37 34 33 32 31 30 28 26 25 26 26 24 22 20 19 20 20 19 19 19 18 17 15 14 15 16 18 20 21 22 23 23 24 25 26 26 25 25 26 27 29 31 34 39 43 46 47 48 48 46 43 42 41 41 42 44 44 43 42 41 42 43 43 43 41 39 38 37 33 30 31 31 29 28 28 26 22 21 22 25 26 28 32
38 38 36 33 32 31 30 29 27 25 25 25 25 24 22 19 17 18 19 19 18 17 16 16 16 15 15 16 17 18 19 21 23 23 22 23 25 25 25 25 26 27 27 27 29 32 37 42 46 47 47 45 43 43 43 43 44 45 46 45 45 44 43 43 45 45 43 41 40 37 33 32 33 33 31 30 28 23 19 19 21 23 25 25 28
37 36 34 31 30 29 29 27 26 25 24 24 23 23 23 20 16 16 16 16 17 17 15 14 16 16 17 17 17 17 18 19 20 20 20 22 24 24 25 24 24 26 27 26 26 28 32 37 41 44 45 44 43 43 43 44 45 46 47 47 46 44 42 42 45 46 45 44 41 38 37 36 35 34 34 32 29 23 20 21 22 23 23 23 25
36 34 32 30 29 28 27 26 26 25 23 23 22 22 22 20 17 17 16 15 16 16 14 14 15 16 16 16 17 17 17 17 17 17 18 21 23 24 26 24 21 22 25 25 24 26 29 34 38 41 42 44 44 43 42 43 43 45 47 46 45 44 42 42 45 45 44 44 42 40 40 38 36 35 35 34 31 27 25 25 25 25 25 24 24
36 34 32 29 28 26 26 25 25 25 24 23 21 20 21 19 17 17 16 15 16 15 14 14 15 15 15 15 15 17 17 16 16 17 18 20 22 23 24 25 24 23 24 24 23 23 24 29 35 39 41 42 43 42 40 40 40 42 44 44 44 44 44 45 47 46 45 45 44 41 40 38 37 36 36 35 33 30 29 28 26 26 27 28 27
34 33 31 28 27 26 25 25 25 25 24 24 21 19 19 19 17 15 14 14 15 15 14 14 14 14 14 13 13 15 16 16 18 19 17 16 19 20 19 21 23 22 21 21 23 23 23 25 30 33 36 38 40 40 39 39 39 40 41 42 44 46 46 47 49 48 48 47 45 42 39 37 36 36 34 33 32 31 29 26 23 24 26 29 29
31 29 28 28 27 25 25 26 25 25 25 24 23 20 19 19 18 16 14 13 13 15 15 13 12 11 11 11 11 13 14 16 19 21 18 14 14 15 16 18 18 19 20 20 20 21 22 24 26 27 29 32 35 38 39 40 40 41 42 43 45 48 48 48 49 50 50 49 46 43 39 36 35 34 33 31 30 30 28 24 23 24 26 29 29
29 28 28 28 27 26 26 26 26 25 24 23 23 21 20 19 17 16 14 13 13 15 15 13 10 9 8 8 8 10 11 14 18 20 19 16 12 12 14 11 8 11 17 17 16 17 18 20 23 25 24 25 29 34 37 38 39 41 43 43 44 46 48 49 51 50 49 49 47 43 39 37 35 33 31 29 28 28 28 27 26 25 26 28 28
31 31 30 29 27 26 26 26 26 25 24 22 21 21 20 18 16 14 14 13 13 13 14 12 10 8 6 5 5 7 9 11 14 17 19 17 13 16 18 11 6 9 12 11 8 12 17 19 20 21 22 23 26 31 33 35 38 41 41 41 42 45 47 50 52 50 49 49 46 41 38 37 35 33 30 28 27 27 27 27 28 29 30 31 31
31 32 32 29 26 25 26 26 25 25 24 22 20 19 19 18 16 13 12 12 12 12 12 11 9 8 6 4 5 4 5 8 10 13 15 14 12 14 16 16 12 12 15 21 21 17 20 22 21 22 25 27 30 32 34 37 41 43 43 44 46 47 47 49 50 49 49 47 42 38 37 35 34 33 30 27 26 26 26 28 31 34 34 34 34
31 31 31 29 26 25 26 26 25 24 23 22 19 18 18 18 17 13 11 11 11 11 10 10 9 8 7 5 4 6 2 5 9 11 12 14 15 11 9 15 19 15 14 20 25 24 25 27 27 29 31 32 33 35 37 39 41 44 46 49 50 47 45 46 46 46 46 42 36 34 35 34 34 32 30 27 27 27 28 29 30 32 32 32 32
31 30 29 28 27 26 26 25 24 22 22 22 20 18 17 17 17 15 12 10 11 11 9 10 10 10 8 6 4 4 5 1 6 12 13 16 19 15 9 12 17 16 15 16 19 22 24 25 28 30 32 33 34 36 38 39 41 44 47 51 51 45 43 44 43 41 40 37 34 34 34 33 33 32 30 29 29 29 28 26 24 24 25 27 28
31 29 28 27 26 25 25 25 23 21 21 21 20 19 17 16 16 15 12 11 11 11 9 9 11 13 11 8 6 4 3 4 2 9 14 18 21 18 13 12 13 13 14 14 16 20 22 22 25 28 31 32 31 30 30 32 35 39 42 47 48 46 44 42 39 38 38 35 34 34 33 33 34 33 32 31 30 31 29 23 20 21 21 23 25
30 28 26 24 22 22 22 23 23 21 20 20 20 19 17 16 15 15 13 12 11 11 9 9 10 13 13 12 9 7 7 5 2 2 9 17 21 18 14 13 13 13 13 14 15 18 19 21 23 25 27 29 29 27 26 27 29 32 36 40 43 47 47 42 35 34 36 36 35 34 34 35 35 35 34 34 33 33 31 26 23 23 23 24 26
29 27 25 22 19 19 20 21 21 21 21 20 19 18 17 16 15 15 14 13 12 11 10 9 10 11 13 14 13 10 8 9 7 3 2 9 17 20 18 15 14 13 13 13 14 16 17 19 20 20 20 22 23 24 24 26 27 30 32 35 38 42 45 40 32 30 33 35 35 34 35 36 37 37 37 37 37 37 35 31 28 27 26 27 29
27 25 23 20 19 20 20 20 21 21 21 20 19 18 17 16 15 15 15 15 14 13 11 9 9 10 11 13 14 13 10 9 9 7 5 3 8 16 21 19 16 15 14 13 13 13 14 16 17 16 15 15 16 17 19 20 23 26 29 33 35 35 36 34 32 32 35 35 35 35 34 35 37 38 38 39 39 39 37 34 31 29 28 28 30
24 23 21 19 19 20 20 19 20 20 20 19 18 18 17 16 16 16 16 16 16 15 13 11 10 9 9 10 13 13 12 10 9 9 7 5 4 7 15 19 19 17 16 15 15 14 14 14 14 14 14 14 13 13 14 16 18 21 24 28 32 33 31 31 32 34 36 37 38 37 36 35 35 36 37 37 38 38 36 33 31 30 29 29 31
21 21 20 19 18 18 19 18 18 19 19 18 17 17 17 16 15 15 16 16 16 16 15 14 12 11 9 9 10 12 13 11 10 9 8 7 6 5 7 13 17 19 19 18 18 19 19 17 17 18 19 19 17 16 15 15 16 18 21 24 27 30 32 33 34 35 36 37 38 38 36 35 35 35 36 36 37 37 35 33 32 32 33 33 32
19 20 20 19 18 17 18 18 18 18 18 18 17 16 16 15 15 14 15 16 16 16 16 15 14 13 12 10 9 10 12 13 11 10 9 8 7 7 6 7 10 15 18 19 19 20 21 21 21 22 22 22 23 22 20 19 19 20 21 23 25 28 30 32 34 34 33 33 34 34 34 34 34 35 35 35 36 37 36 36 35 35 35 35 35
19 19 20 19 18 18 19 19 19 18 18 19 18 17 16 15 14 13 14 14 15 15 15 16 16 15 14 13 11 10 11 13 13 12 11 10 9 8 7 7 7 9 11 13 15 17 20 21 22 22 21 21 23 24 24 24 24 24 25 26 27 28 30 31 33 34 33 33 33 34 34 34 35 36 36 35 36 36 37 39 40 39 38 37 37
19 19 19 19 19 19 20 20 20 19 18 18 19 18 17 16 14 13 12 13 14 14 14 15 15 16 15 15 14 12 11 12 14 14 13 12 11 10 9 9 9 9 8 9 10 12 15 16 17 18 18 18 19 21 23 25 25 24 23 25 29 31 32 33 34 35 36 36 37 37 37 37 38 38 37 37 38 38 38 39 42 43 42 42 41
21 20 19 19 20 20 21 22 22 20 19 18 18 19 19 18 17 15 13 12 12 13 13 13 14 15 15 16 16 15 13 13 13 14 15 15 14 12 11 11 10 10 10 10 10 11 12 13 13 13 14 14 14 15 17 19 20 20 19 19 22 25 28 30 31 33 34 35 36 37 38 38 39 38 38 38 39 40 40 39 40 41 43 43 43
22 21 20 20 19 20 20 21 21 20 18 18 18 18 18 19 19 19 18 15 13 12 12 13 14 14 14 15 16 16 16 15 14 14 15 16 17 16 15 14 13 13 13 12 12 12 13 13 13 13 14 13 13 13 13 13 14 16 16 16 16 18 20 21 23 24 26 27 28 29 30 31 32 33 33 34 36 38 40 40 41 41 42 43 43
22 21 20 19 19 19 20 20 20 19 18 17 17 18 18 18 19 20 20 20 17 14 12 13 14 15 14 14 15 15 17 17 17 16 15 16 17 18 18 17 16 16 15 15 15 15 15 16 16 16 17 17 16 15 15 15 15 15 15 16 17 18 20 21 21 22 22 22 23 23 24 25 26 26 27 28 29 31 33 34 35 36 37 37 37
23 22 22 21 21 21 21 21 20 19 19 17 16 16 17 18 18 19 19 19 20 18 15 14 15 16 16 15 15 15 16 17 18 18 17 17 17 17 18 19 19 19 18 18 17 18 18 18 19 19 20 20 20 19 19 19 19 19 19 20 21 22 23 23 23 23 23 24 24 24 25 25 25 25 25 25 25 26 26 26 27 28 29 30 30
23 23 23 23 23 22 21 21 21 21 20 19 18 18 19 19 20 20 19 18 19 19 18 17 16 16 17 17 17 17 17 17 17 17 18 19 19 19 19 20 20 21 21 20 20 20 20 21 22 22 22 23 23 23 23 23 23 23 24 25 26 26 25 25 24 25 26 27 27 28 28 28 27 27 26 26 26 26 25 25 26 27 27 28 28
25 24 24 24 23 22 22 21 21 20 20 20 20 21 21 21 21 21 21 20 20 19 19 18 17 17 17 18 18 18 18 18 17 17 17 18 19 20 20 21 21 22 22 22 23 23 23 24 24 24 24 24 25 25 26 26 26 26 27 28 29 29 29 28 28 29 29 30 30 30 30 30 29 29 29 29 28 28 28 28 28 29 29 30 30
27 26 25 24 24 24 23 23 22 21 21 21 22 22 22 21 21 21 21 21 20 18 18 17 17 18 18 19 19 19 20 20 20 20 19 18 18 19 20 21 22 23 24 24 25 25 25 26 26 26 26 26 26 27 28 28 29 29 29 29 30 30 30 31 31 32 33 33 33 33 33 33 33 33 33 33 32 32 32 32 32 32 33 33 33
26 25 24 24 24 24 24 24 24 23 23 22 22 22 22 22 21 21 21 20 20 19 19 19 19 19 19 20 20 21 21 22 22 23 22 22 22 21 21 21 22 23 24 25 26 27 27 28 28 28 28 28 27 28 28 29 30 30 30 30 30 30 30 31 32 33 34 35 35 36 36 36 36 35 35 35 35 34 34 34 34 34 34 34 35
23 23 22 23 23 24 24 25 25 24 23 22 22 22 22 22 22 21 20 19 19 20 20 21 21 20 20 20 21 22 23 23 23 24 24 25 26 25 24 23 23 23 24 25 26 27 28 29 30 30 30 30 30 30 30 31 30 30 30 31 31 31 31 32 32 33 34 35 36 37 37 37 37 37 37 37 37 36 36 35 36 36 36 35 35
21 22 22 23 24 24 24 24 24 23 23 22 22 22 22 21 21 20 19 18 19 19 20 21 21 22 22 22 22 22 23 24 25 26 26 27 28 28 27 26 25 25 24 24 25 25 26 28 29 31 32 33 33 33 33 33 33 32 32 32 32 32 33 33 33 33 34 35 36 37 38 38 38 39 38 38 38 37 37 37 36 36 36 36 36
22 24 24 24 24 24 24 23 23 23 23 23 23 23 23 22 22 21 21 20 21 21 22 23 23 24 24 24 24 24 24 25 26 27 28 29 29 30 30 30 30 29 29 29 28 28 28 28 28 29 31 32 34 36 36 37 37 36 36 35 34 34 35 35 35 35 35 36 37 37 38 39 39 40 40 40 39 39 39 38 38 38 38 39 39
22 24 24 24 24 24 24 23 23 23 24 24 24 24 24 24 23 23 23 23 23 24 25 27 27 28 28 27 27 27 26 26 27 27 28 30 31 31 32 32 33 33 34 34 34 34 34 33 32 31 31 31 33 35 37 39 40 40 40 40 39 38 38 38 37 37 37 37 38 38 39 40 40 41 41 41 41 41 41 41 40 40 41 41 41
22 23 24 23 23 23 24 24 24 24 24 25 25 25 25 25 25 25 25 26 27 28 29 30 31 32 32 32 31 31 30 30 29 29 29 30 30 31 32 33 34 35 35 35 35 36 36 36 36 35 34 33 33 34 37 39 41 42 43 43 43 43 42 41 41 40 40 39 39 39 40 40 40 41 41 42 42 43 43 43 43 42 43 43 43
20 22 23 22 22 22 23 23 24 24 24 25 25 26 26 27 27 28 29 30 31 32 33 34 34 35 35 35 35 35 35 34 33 32 32 31 31 32 33 34 35 36 37 37 37 37 37 37 37 36 36 34 33 33 35 37 39 41 42 43 44 45 45 45 44 44 44 43 43 42 42 42 42 42 43 43 43 44 44 44 44 44 44 44 44
21 22 22 22 22 22 23 24 24 25 26 27 27 28 29 30 31 32 33 34 34 35 36 36 37 37 37 37 38 38 38 38 38 37 36 35 34 34 34 34 35 36 37 38 38 38 38 38 37 36 35 35 34 34 34 35 36 37 39 41 42 43 44 45 46 47 47 47 47 46 46 45 45 45 45 45 46 46 46 46 47 47 47 47 47
24 23 23 23 23 23 24 25 26 28 28 29 30 31 32 33 34 35 35 36 36 36 37 37 38 38 38 39 39 39 39 40 40 39 39 38 37 37 36 36 36 36 37 38 38 37 37 37 37 36 36 36 36 37 37 37 37 37 37 38 39 40 41 43 45 46 47 48 48 49 49 48 48 47 47 47 47 47 47 48 48 48 49 49 49
26 26 25 25 26 27 28 29 29 30 31 32 33 33 33 34 34 35 36 36 37 37 37 38 38 39 40 40 40 40 40 40 41 41 41 40 40 40 39 38 38 37 37 38 38 37 37 38 39 39 39 39 40 42 42 42 42 42 42 41 41 40 40 40 42 43 44 45 46 47 48 48 48 48 49 49 49 48 48 48 49 49 49 49 49
27 28 28 29 29 30 31 31 31 32 32 33 35 35 36 36 36 36 37 37 38 38 39 39 40 41 41 42 43 43 43 43 43 43 43 43 43 43 42 41 41 40 39 38 38 39 39 40 42 43 44 45 46 46 46 44 44 45 45 45 44 43 43 43 43 44 45 45 45 45 45 45 45 46 47 49 49 49 49 49 50 50 50 50 50
28 29 29 30 30 31 32 32 33 33 34 36 37 38 39 39 39 40 40 41 41 41 41 42 43 43 44 44 45 46 46 46 46 46 46 46 46 46 45 45 44 43 42 41 40 40 41 42 44 46 47 48 48 48 47 46 45 46 47 47 46 45 45 46 47 48 48 48 47 47 46 46 45 45 46 46 46 47 48 49 50 51 51 52 52
28 28 29 30 31 32 33 34 34 35 36 37 38 39 40 40 41 42 42 43 43 43 43 44 44 45 46 46 47 47 48 48 48 48 48 48 47 48 47 47 47 46 45 44 43 43 43 44 45 46 47 48 49 49 49 48 47 47 48 48 48 48 48 48 48 49 49 50 50 50 49 48 47 46 46 46 46 46 47 48 50 51 52 53 54
Wind_Direction
308 308 308 308 307 306 305 305 304 303 301 298 294 291 289 287 283 279 276 273 271 269 267 265 262 260 260 261 260 256 252 253 254 254 253 253 253 252 251 250 249 246 238 234 238 240 235 229 224 222 223 222 222 223 225 224 223 223 225 230 231 229 228 226 226 233 238 239 239 241 243 244 243 241 239 239 239 239 240 241 241 241 242 244 246
310 310 309 308 306 306 306 305 305 304 301 298 296 293 288 282 279 278 276 274 274 271 268 266 264 262 261 263 264 260 255 255 256 254 252 252 253 252 251 250 251 248 240 234 236 239 236 230 225 225 226 224 221 221 222 223 225 225 225 229 232 231 228 225 225 230 236 238 238 239 242 242 242 241 240 240 240 239 239 240 242 243 244 247 249
313 313 311 308 307 307 307 307 307 305 302 299 296 294 289 284 281 279 277 275 276 274 270 267 267 267 266 265 265 261 257 256 255 252 251 252 254 253 252 253 255 252 244 235 233 235 234 230 226 226 226 221 217 217 218 220 225 226 226 229 232 232 229 226 227 229 235 239 238 238 239 238 237 239 239 240 241 241 240 240 241 243 244 246 248
316 315 313 310 308 309 310 309 308 306 303 301 299 297 294 291 288 284 279 277 277 275 271 267 266 268 268 265 264 262 259 257 255 252 251 251 251 251 252 254 255 252 244 236 233 232 232 230 228 226 224 219 217 218 219 221 224 225 226 227 231 232 229 227 227 229 233 237 238 237 237 235 234 236 238 240 242 243 243 243 243 244 245 246 247
318 317 314 311 311 312 311 310 307 306 304 303 304 303 299 296 294 289 283 281 282 277 270 266 266 267 267 263 261 262 261 257 254 254 253 251 248 248 252 255 255 252 243 234 231 232 231 231 231 230 228 225 223 224 225 225 226 225 225 226 229 230 227 226 227 228 228 230 233 236 236 233 232 233 236 240 242 243 243 244 245 246 246 247 248
319 318 315 314 314 314 312 311 308 307 306 307 308 308 304 300 295 290 285 283 287 285 273 266 267 267 266 262 257 256 257 254 252 252 253 252 251 250 253 254 252 249 241 232 230 231 231 232 233 231 230 230 228 227 228 229 228 227 226 227 228 227 226 225 226 226 225 226 230 236 239 236 232 234 240 245 246 244 241 241 243 245 245 246 248
320 319 317 316 316 316 315 314 312 311 310 310 311 311 309 304 296 292 289 284 289 296 283 268 267 265 264 262 256 252 253 252 253 254 254 255 256 255 255 254 250 246 240 231 229 231 232 232 232 229 228 230 232 231 231 231 231 231 230 229 228 226 225 226 225 225 227 228 231 236 241 240 237 239 247 251 251 250 245 243 245 245 244 244 246
320 319 317 317 317 318 318 317 316 315 314 313 313 312 311 307 298 296 297 288 292 305 298 275 266 264 263 260 255 254 255 255 257 260 259 258 258 258 258 254 249 246 240 233 230 231 230 229 229 228 227 228 232 234 233 231 232 233 232 229 226 224 225 226 224 226 230 231 232 235 240 243 241 243 248 249 250 251 248 247 251 250 246 244 245
320 318 317 317 318 320 321 320 319 318 316 316 317 315 312 308 300 300 304 298 298 307 302 280 268 267 265 260 256 255 258 261 265 266 264 263 262 261 259 255 249 246 243 236 231 230 228 226 226 227 228 228 230 233 234 232 232 233 232 229 226 224 226 226 224 226 230 231 232 236 240 241 243 246 247 246 247 249 248 249 254 255 252 248 246
320 318 317 318 320 322 322 321 321 320 319 321 323 320 314 308 303 302 304 303 301 303 298 282 272 273 272 266 261 259 261 265 265 266 265 263 262 260 257 254 251 248 245 239 233 229 226 225 225 226 227 229 230 232 235 233 232 233 232 229 227 225 225 227 226 226 228 230 232 237 239 238 241 246 247 245 245 247 247 250 256 258 258 252 246
319 317 317 319 321 322 322 322 322 321 321 322 325 325 319 311 308 308 307 306 305 301 294 283 277 279 278 274 270 267 265 262 262 268 268 259 254 253 251 253 255 252 247 243 237 231 226 224 224 225 227 229 230 232 234 233 231 232 232 231 228 225 226 229 229 228 228 230 233 236 237 235 239 245 246 242 242 244 247 254 259 259 257 251 243
318 317 316 318 320 321 323 323 323 322 321 321 323 325 319 311 312 316 314 313 313 306 293 285 283 284 282 277 274 272 268 262 263 272 271 255 247 248 248 249 253 253 249 245 240 234 228 225 224 225 227 229 229 229 231 231 231 232 234 233 230 228 230 231 231 230 230 232 234 235 234 235 239 242 243 240 239 242 249 256 259 258 252 244 239
317 316 315 317 318 320 322 324 324 323 321 320 321 324 320 309 308 320 322 320 318 311 296 284 284 286 285 280 275 272 271 267 264 268 266 253 244 244 245 243 245 248 249 246 241 237 231 226 225 226 226 226 225 226 228 230 230 231 233 233 232 231 233 233 232 232 232 233 234 234 234 237 240 241 241 241 240 244 253 259 259 253 243 236 235
314 313 313 315 316 317 319 323 325 323 321 319 320 324 324 313 302 307 315 314 312 308 299 287 284 285 286 283 277 275 275 272 262 256 257 252 243 241 243 245 247 249 248 245 241 238 234 229 226 226 225 224 224 224 226 229 231 231 231 232 232 232 232 232 232 232 233 233 234 233 235 237 239 240 240 241 243 248 255 260 259 249 239 235 236
312 309 309 312 314 315 317 320 323 324 323 321 321 323 326 322 308 302 307 309 310 309 301 289 286 289 289 283 278 275 274 273 260 248 246 246 243 241 243 247 251 250 248 244 240 237 237 234 230 227 225 224 224 223 225 228 230 230 231 231 231 232 232 231 230 230 230 231 232 233 234 236 239 241 240 240 244 250 257 262 261 251 240 238 238
313 308 305 308 311 313 315 316 319 323 324 324 323 322 324 324 317 312 311 309 313 316 307 291 285 290 292 287 280 272 266 260 250 244 243 244 243 243 244 248 248 244 242 243 240 235 235 236 235 232 228 225 224 223 224 226 226 227 229 229 230 232 231 230 228 227 227 228 229 231 233 235 237 240 240 240 243 249 254 256 257 251 243 239 237
317 313 307 307 310 311 313 314 315 319 323 325 325 324 323 321 319 320 322 320 320 320 313 299 288 290 296 295 285 272 260 249 243 242 244 246 243 238 241 246 244 236 233 235 237 235 231 230 231 231 230 227 223 223 224 225 226 226 227 230 233 234 233 230 226 224 224 226 228 230 231 232 235 237 238 238 239 244 246 244 246 248 243 238 235
314 314 310 308 308 308 310 311 312 314 319 324 327 325 323 322 321 324 329 332 331 322 313 308 300 293 299 306 296 278 261 248 242 239 241 247 241 217 219 227 222 225 231 233 240 243 236 230 228 226 228 227 224 224 224 222 222 225 226 228 231 232 231 227 222 220 221 224 227 229 228 229 232 236 237 237 237 241 243 241 242 244 238 233 235
306 306 306 306 305 305 307 309 309 311 314 320 327 327 323 319 320 325 328 331 332 323 313 312 309 299 302 326 323 294 269 253 245 237 236 242 233 214 219 222 175 187 202 191 203 235 233 232 232 224 218 217 215 217 217 213 214 220 222 222 222 222 222 220 218 217 218 222 226 228 227 228 232 235 237 238 239 242 245 243 241 241 239 239 246
305 302 302 303 304 306 308 307 307 308 310 317 325 328 325 319 316 319 322 323 324 320 316 320 321 311 304 325 1 343 279 257 248 234 227 227 217 210 225 228 204 189 175 154 153 180 203 209 211 203 201 208 213 215 215 213 216 220 221 217 216 216 216 214 213 214 216 220 225 227 228 229 232 234 236 238 240 242 246 246 244 244 245 247 251
307 303 300 298 300 306 308 306 304 305 308 315 322 326 326 321 316 311 309 310 311 311 321 331 330 321 305 302 3 33 14 248 243 236 222 209 199 190 207 219 216 214 196 173 172 183 191 191 193 196 198 204 209 213 217 220 223 225 223 218 216 218 217 214 211 213 216 220 225 227 229 232 234 235 235 234 236 240 241 240 241 243 244 244 244
307 304 300 295 295 301 304 303 302 304 308 312 318 321 322 322 319 311 300 296 296 299 318 334 327 323 320 303 312 17 43 75 225 232 224 209 209 215 220 218 219 222 217 207 204 205 200 192 195 201 204 203 206 210 215 219 222 223 222 218 216 218 219 215 212 214 217 223 228 230 232 236 237 237 235 231 233 237 235 232 236 241 241 238 233
305 302 299 295 294 296 300 300 302 305 308 311 314 316 317 319 319 313 300 292 291 292 305 323 321 322 328 322 299 289 342 40 135 219 222 214 216 226 227 218 220 223 219 217 218 217 215 210 207 209 211 212 213 215 215 217 219 220 220 218 217 219 219 217 219 223 226 228 233 235 238 240 240 239 234 230 231 232 229 230 239 244 241 236 227
303 300 298 297 296 295 296 298 301 305 308 309 311 312 312 313 314 312 304 298 298 297 298 303 309 315 321 322 315 296 284 299 355 204 221 217 215 219 220 222 231 231 220 215 216 218 222 222 220 219 219 220 222 221 217 215 216 217 218 219 220 222 223 221 222 228 232 233 235 238 240 242 242 239 233 228 228 228 228 234 244 246 242 237 230
299 299 297 296 295 293 294 296 299 303 306 307 308 308 307 306 306 306 306 303 303 305 303 299 300 306 312 314 317 317 302 285 284 299 263 225 220 220 220 228 238 235 225 220 216 215 218 221 223 224 222 222 225 225 222 220 219 218 218 218 218 220 220 217 215 221 229 234 237 239 241 242 240 238 234 231 230 231 234 239 244 245 244 240 234
296 297 297 295 293 292 295 297 299 301 303 304 305 305 305 305 302 301 301 302 302 305 307 307 302 302 306 309 311 314 314 302 287 284 292 274 236 225 223 229 237 234 230 230 221 212 213 216 220 224 225 226 229 229 227 227 226 224 223 222 221 219 217 215 217 222 229 235 237 238 238 238 237 236 234 233 234 237 240 243 244 245 244 241 237
292 293 294 294 293 291 294 298 300 301 302 304 304 303 304 305 303 300 297 297 298 300 303 307 308 305 303 306 308 310 311 312 308 299 290 287 273 233 222 226 230 229 232 234 230 226 224 217 216 225 232 236 239 240 238 237 233 230 227 224 223 221 217 215 219 224 228 231 232 232 232 233 234 235 235 235 237 240 242 243 242 242 240 238 237
289 289 288 287 288 287 290 295 300 302 304 305 305 303 304 305 304 301 297 294 293 294 297 301 304 303 300 300 304 307 309 310 312 313 305 291 280 261 228 221 221 220 221 222 221 226 234 232 227 228 229 229 229 230 232 236 238 237 233 229 226 224 221 219 221 224 226 228 229 230 231 233 234 234 235 237 239 241 241 238 237 237 236 234 234
289 288 285 283 284 285 286 291 295 298 300 301 302 303 304 305 304 301 298 294 291 290 291 294 297 298 298 297 297 300 305 309 310 312 313 306 288 271 252 233 222 215 213 211 209 214 222 225 224 222 220 217 215 212 212 218 224 229 231 231 231 230 228 226 224 224 226 230 233 234 235 237 237 237 238 239 240 241 239 233 231 234 235 234 234
288 288 287 286 287 287 287 289 291 293 294 295 298 299 300 301 301 299 296 294 292 289 287 287 289 292 294 295 294 292 295 301 306 309 310 311 304 287 266 251 241 228 219 214 211 213 215 215 214 212 208 205 203 201 202 207 213 218 222 225 226 227 229 228 226 224 224 227 231 234 237 238 240 241 242 242 240 239 235 231 229 231 233 234 236
284 283 283 284 285 285 286 288 289 291 292 294 296 296 297 297 297 296 295 294 293 292 290 287 286 287 288 289 290 288 285 288 295 301 302 302 302 299 287 268 254 246 240 230 222 220 221 220 218 216 212 208 206 205 207 209 211 213 216 220 223 224 226 228 228 227 226 226 228 232 235 238 239 240 241 240 237 235 234 231 230 232 234 236 239
287 286 285 285 286 287 288 288 287 288 291 295 296 295 294 294 295 295 293 291 291 294 296 295 292 289 288 287 286 286 283 279 280 286 292 294 294 293 291 284 271 259 250 242 234 229 228 228 228 227 224 221 219 216 215 216 214 210 208 212 218 221 223 225 227 228 229 229 230 233 236 238 240 240 239 238 236 236 236 236 235 235 236 238 240
289 291 291 290 290 291 290 287 284 283 287 291 292 289 287 288 290 292 292 292 292 294 297 300 299 297 294 291 288 286 283 279 275 273 277 284 288 289 287 285 281 273 264 254 246 240 236 235 236 236 234 232 229 227 226 228 227 222 214 210 211 213 215 218 220 223 226 227 228 230 232 234 236 236 235 234 234 235 236 237 236 235 235 236 238
288 290 289 287 287 288 287 284 282 282 284 286 285 282 282 282 284 286 290 293 294 296 297 297 299 301 300 298 294 290 285 282 279 275 271 271 276 281 283 282 279 275 272 267 261 254 248 243 241 240 240 239 236 233 231 232 235 236 232 227 223 219 219 219 220 222 226 227 229 230 231 230 231 231 231 231 232 233 233 233 232 232 231 232 232
286 285 284 284 286 288 287 284 283 283 283 285 285 281 280 282 282 283 286 289 292 294 293 291 293 297 299 300 299 296 291 288 285 283 279 273 268 269 273 276 277 275 272 269 267 265 261 256 250 246 244 244 243 241 238 236 235 236 237 237 235 231 229 228 228 229 231 232 234 235 235 235 235 235 234 235 235 235 235 233 231 230 229 228 228
285 283 281 282 285 287 286 284 282 281 282 284 284 281 279 280 282 283 283 284 286 287 287 287 288 291 293 295 296 295 293 291 288 285 282 278 273 267 264 265 268 271 272 269 266 264 263 261 258 254 251 250 249 247 245 242 240 238 237 238 239 238 237 236 235 235 234 234 235 235 236 238 238 238 238 238 238 237 236 235 234 233 232 231 230
287 285 284 283 284 284 283 282 282 281 281 281 280 279 279 280 281 282 282 282 281 281 282 285 287 287 287 288 289 289 290 289 288 285 282 279 276 272 268 264 262 263 265 267 268 267 265 263 262 260 257 255 254 252 250 248 246 244 243 242 243 243 242 240 239 239 238 238 238 238 238 239 240 240 240 239 238 238 237 237 236 236 236 235 235
288 287 286 285 285 284 283 282 281 280 280 280 280 279 280 280 279 279 279 280 280 280 281 283 286 287 288 287 286 284 283 283 283 283 283 280 276 272 270 268 264 260 258 259 261 263 265 265 265 264 263 261 258 256 254 252 251 250 250 249 248 248 246 244 242 242 241 241 241 241 241 240 240 240 240 240 239 239 238 238 238 238 238 238 239
288 286 285 286 285 283 281 280 279 278 279 279 278 279 279 279 278 279 280 282 283 283 282 281 282 283 284 285 285 283 281 279 278 278 278 279 276 273 270 269 266 263 261 258 256 256 257 258 260 262 263 263 263 261 259 256 254 254 255 255 254 253 251 249 247 245 244 242 241 240 240 241 240 240 240 240 240 240 240 240 240 240 240 241 241
285 283 284 285 282 279 276 276 277 279 281 281 279 278 277 277 278 280 281 283 284 284 285 285 286 285 284 284 284 283 282 281 279 277 276 275 275 274 273 271 269 266 264 261 259 257 256 255 255 256 257 258 259 260 260 259 257 255 255 256 256 256 255 253 252 250 249 247 245 243 242 241 241 241 241 241 241 242 242 242 243 243 244 244 243
281 280 280 281 280 277 276 276 279 281 283 283 281 278 276 277 278 280 282 284 284 285 286 287 288 290 289 288 286 284 282 281 279 278 276 275 273 273 272 271 270 269 266 263 261 260 259 258 257 256 256 255 255 255 256 258 258 257 255 253 254 254 254 253 252 251 250 249 249 249 248 247 246 245 245 244 244 244 244 245 245 246 247 247 247
279 278 277 278 278 278 277 278 280 280 280 279 277 276 277 279 281 283 285 287 288 289 290 292 293 294 294 294 292 289 285 282 281 279 277 276 275 274 272 269 267 266 266 266 266 266 265 262 260 259 258 257 256 255 255 255 256 256 256 254 253 252 252 252 251 250 249 248 248 248 248 248 248 248 248 248 248 248 248 248 248 249 249 249 249
281 279 279 279 278 278 278 279 279 278 277 276 276 277 279 281 284 286 288 290 291 293 294 295 296 297 296 295 294 292 289 286 283 281 279 277 275 275 274 272 269 266 265 265 266 267 267 266 264 262 260 259 258 258 256 255 254 253 253 253 253 252 251 251 251 251 250 249 249 248 248 247 247 248 249 249 250 250 250 250 250 250 251 251 251
281 279 279 279 278 278 280 280 279 278 278 278 279 280 282 284 286 288 290 291 293 294 294 295 295 295 295 294 294 292 291 288 285 282 279 276 274 272 271 270 269 269 268 267 266 266 266 266 265 263 262 261 260 259 257 255 254 252 252 252 252 251 251 251 251 251 251 250 250 250 250 250 250 250 250 250 250 251 251 251 250 250 251 251 252
279 278 279 280 280 280 281 282 282 282 282 282 282 283 284 286 288 289 291 292 293 293 293 293 293 293 293 293 293 292 291 289 287 285 282 278 275 272 270 268 267 267 267 267 267 266 265 264 263 262 263 263 263 261 259 257 255 254 253 252 252 252 251 251 251 251 251 251 251 251 251 251 251 251 251 251 252 252 252 252 252 252 252 251 252
281 281 282 282 283 284 284 284 284 284 284 284 284 285 286 288 289 290 291 291 291 291 292 292 292 292 293 292 292 292 291 289 288 287 285 282 279 276 273 270 269 267 266 266 266 265 264 262 261 260 262 263 263 261 260 259 259 258 257 256 255 255 254 253 252 251 250 250 250 250 250 251 251 251 251 252 252 253 253 253 253 253 253 252 251
287 286 285 285 285 286 286 286 286 286 285 286 286 287 287 288 288 288 288 289 289 289 290 290 290 290 290 289 289 289 288 288 287 287 286 285 283 280 277 275 272 270 269 268 268 266 263 262 262 263 263 263 262 261 259 260 261 263 261 259 257 257 257 255 254 252 251 251 250 249 249 250 250 251 251 251 252 252 253 254 254 254 254 254 253
289 289 290 291 291 291 291 290 290 290 290 290 289 288 288 288 288 288 288 288 288 288 287 287 287 286 286 286 286 285 285 285 284 284 284 283 282 281 279 277 275 272 269 268 268 266 263 262 263 263 262 260 260 261 261 261 264 266 264 261 257 256 255 254 253 253 253 252 252 251 250 250 251 251 251 251 251 251 252 253 254 254 255 255 255
290 291 293 294 295 294 294 293 293 293 293 293 292 291 290 289 289 289 289 288 287 286 286 285 285 284 284 284 284 283 283 282 281 280 280 279 279 278 277 276 275 273 271 268 266 264 263 261 260 260 260 260 261 262 263 264 265 265 264 261 258 255 253 251 252 253 254 254 253 252 252 253 253 253 253 253 253 253 253 253 253 254 254 254 254
291 292 293 295 295 294 294 294 295 294 294 293 293 292 291 290 289 289 288 287 286 286 285 284 283 283 282 281 281 281 281 280 279 279 278 277 277 276 276 275 274 273 272 270 267 265 263 261 260 259 260 261 262 263 264 264 264 262 260 257 256 255 255 254 253 254 255 255 254 253 254 254 255 255 254 254 255 255 255 255 255 254 254 253 253
291 292 293 294 294 294 294 293 292 292 291 291 291 290 290 289 288 287 286 286 286 285 284 284 283 282 281 280 280 279 279 278 278 278 277 277 276 275 275 274 273 272 271 269 267 265 263 262 261 260 260 260 260 260 260 260 262 262 260 257 255 255 256 256 256 255 255 255 255 254 254 254 255 254 254 254 254 255 255 256 255 255 254 254 253
Height
5814 5810 5807 5803 5800 5797 5795 5792 5790 5788 5785 5782 5780 5778 5776 5773 5772 5771 5771 5770 5770 5770 5770 5769 5768 5767 5766 5766 5767 5769 5770 5771 5772 5771 5771 5772 5774 5776 5780 5783 5784 5785 5788 5792 5794 5794 5795 5798 5802 5805 5808 5810 5813 5817 5821 5823 5825 5826 5829 5831 5833 5835 5836 5840 5843 5842 5841 5843 5845 5847 5849 5850 5851 5852 5853 5854 5854 5855 5856 5857 5858 5859 5860 5861 5862
5810 5807 5803 5799 5796 5793 5790 5788 5786 5784 5781 5779 5776 5773 5771 5768 5766 5765 5765 5764 5763 5763 5763 5762 5761 5760 5760 5760 5761 5763 5764 5765 5765 5765 5766 5767 5769 5770 5773 5776 5778 5779 5783 5787 5788 5788 5790 5792 5796 5800 5802 5805 5808 5812 5816 5819 5820 5822 5825 5828 5830 5831 5832 5835 5837 5837 5837 5839 5841 5843 5845 5847 5848 5848 5849 5850 5851 5851 5853 5854 5855 5856 5857 5858 5859
5805 5802 5799 5796 5792 5789 5786 5783 5781 5779 5777 5775 5772 5769 5766 5764 5762 5761 5760 5759 5758 5757 5756 5756 5756 5755 5755 5755 5756 5757 5758 5759 5760 5761 5762 5763 5764 5765 5767 5769 5771 5773 5777 5781 5782 5783 5784 5786 5789 5793 5797 5800 5803 5807 5811 5813 5815 5818 5821 5824 5826 5826 5828 5830 5832 5834 5834 5835 5836 5839 5841 5843 5844 5844 5845 5846 5847 5848 5849 5850 5851 5853 5854 5855 5856
5800 5797 5794 5791 5788 5785 5783 5780 5777 5774 5772 5770 5767 5765 5762 5760 5758 5757 5756 5755 5754 5752 5751 5751 5751 5750 5750 5751 5751 5752 5753 5754 5755 5756 5757 5758 5759 5760 5761 5763 5764 5767 5770 5774 5776 5778 5779 5781 5784 5787 5790 5794 5798 5802 5805 5808 5810 5814 5816 5819 5821 5823 5824 5826 5828 5830 5831 5831 5833 5835 5837 5839 5840 5841 5842 5843 5844 5845 5846 5846 5847 5849 5850 5851 5852
5796 5793 5790 5786 5784 5782 5779 5776 5772 5769 5767 5764 5762 5760 5757 5755 5754 5752 5751 5751 5749 5748 5746 5746 5746 5746 5746 5747 5748 5747 5747 5747 5748 5750 5751 5753 5754 5756 5757 5757 5759 5761 5764 5766 5769 5772 5775 5777 5780 5781 5784 5788 5793 5797 5799 5802 5806 5809 5811 5814 5816 5818 5820 5822 5824 5825 5826 5828 5829 5830 5832 5835 5836 5837 5839 5840 5841 5841 5842 5843 5844 5845 5846 5848 5849
5791 5789 5785 5782 5779 5777 5775 5772 5768 5765 5762 5760 5757 5754 5752 5750 5749 5748 5747 5746 5745 5743 5742 5742 5742 5742 5742 5742 5743 5742 5742 5742 5743 5745 5746 5748 5750 5752 5752 5753 5754 5755 5758 5760 5763 5766 5769 5773 5775 5776 5779 5783 5788 5792 5794 5797 5800 5803 5806 5809 5811 5814 5816 5817 5819 5821 5823 5825 5827 5828 5830 5832 5833 5834 5836 5837 5838 5838 5838 5839 5839 5840 5842 5843 5844
5787 5784 5781 5778 5775 5773 5770 5767 5764 5761 5758 5755 5753 5750 5747 5745 5744 5743 5742 5741 5740 5739 5737 5737 5737 5737 5737 5737 5738 5738 5738 5739 5740 5741 5742 5743 5745 5747 5747 5748 5748 5750 5752 5755 5757 5760 5763 5767 5770 5772 5775 5778 5782 5785 5789 5792 5794 5798 5802 5805 5807 5810 5812 5813 5814 5817 5820 5823 5825 5826 5827 5829 5831 5832 5833 5834 5835 5835 5834 5835 5835 5836 5837 5838 5840
5784 5780 5777 5775 5772 5769 5766 5763 5760 5757 5754 5752 5749 5746 5744 5741 5740 5738 5737 5736 5735 5734 5732 5732 5732 5732 5732 5732 5733 5734 5735 5735 5736 5737 5737 5738 5739 5740 5741 5742 5742 5744 5747 5749 5751 5754 5757 5761 5764 5767 5770 5774 5777 5780 5783 5786 5789 5793 5796 5800 5803 5805 5807 5808 5810 5812 5816 5819 5821 5823 5824 5826 5828 5829 5830 5830 5831 5831 5831 5831 5832 5832 5833 5834 5835
5780 5777 5774 5771 5769 5766 5762 5759 5756 5753 5750 5748 5745 5743 5740 5738 5736 5735 5733 5732 5731 5730 5729 5728 5728 5728 5728 5729 5729 5731 5732 5732 5733 5733 5733 5733 5734 5735 5735 5735 5736 5738 5740 5743 5745 5748 5752 5756 5759 5762 5765 5769 5773 5775 5778 5782 5784 5788 5792 5795 5798 5801 5802 5803 5805 5808 5811 5814 5817 5819 5821 5823 5825 5826 5827 5827 5827 5828 5828 5828 5828 5828 5829 5831 5832
5777 5774 5771 5768 5766 5763 5759 5756 5753 5750 5747 5745 5742 5740 5737 5735 5734 5732 5730 5729 5727 5726 5725 5725 5724 5725 5725 5726 5726 5727 5728 5728 5728 5728 5729 5729 5729 5729 5730 5730 5731 5733 5735 5737 5740 5743 5747 5751 5754 5757 5760 5764 5768 5772 5774 5777 5780 5784 5787 5789 5792 5795 5797 5799 5802 5805 5807 5809 5812 5814 5817 5819 5821 5821 5822 5823 5824 5824 5824 5824 5824 5824 5826 5827 5828
5774 5771 5768 5766 5763 5760 5757 5753 5750 5747 5745 5742 5740 5737 5735 5733 5732 5730 5728 5726 5725 5724 5723 5722 5722 5723 5723 5724 5724 5724 5725 5724 5724 5724 5725 5724 5725 5725 5726 5727 5727 5728 5730 5732 5734 5737 5741 5745 5748 5752 5755 5759 5764 5768 5770 5773 5776 5779 5782 5784 5787 5790 5792 5795 5798 5800 5803 5805 5808 5810 5813 5815 5816 5817 5818 5819 5820 5820 5820 5820 5820 5820 5821 5822 5823
5771 5768 5765 5763 5761 5758 5755 5751 5748 5745 5743 5740 5737 5735 5732 5731 5730 5728 5726 5724 5723 5722 5721 5720 5720 5720 5721 5721 5721 5721 5721 5721 5721 5721 5720 5721 5721 5722 5724 5724 5725 5725 5726 5728 5730 5732 5735 5739 5743 5747 5751 5755 5759 5763 5765 5767 5770 5773 5776 5779 5782 5784 5787 5790 5793 5796 5798 5801 5803 5807 5809 5810 5811 5812 5814 5814 5815 5815 5816 5816 5817 5816 5817 5818 5820
5767 5764 5762 5761 5758 5756 5753 5750 5746 5743 5741 5738 5735 5732 5730 5728 5727 5726 5724 5723 5722 5720 5719 5719 5718 5719 5719 5719 5718 5718 5718 5718 5718 5718 5717 5717 5718 5720 5721 5721 5721 5722 5724 5725 5727 5728 5731 5735 5738 5742 5745 5748 5752 5756 5759 5761 5764 5768 5770 5773 5776 5780 5783 5785 5787 5790 5793 5796 5799 5802 5804 5805 5806 5807 5808 5810 5810 5811 5811 5812 5813 5813 5813 5814 5816
5764 5761 5759 5758 5756 5754 5751 5748 5745 5742 5739 5737 5734 5731 5728 5726 5725 5723 5722 5721 5720 5719 5718 5717 5717 5717 5717 5716 5715 5715 5715 5715 5715 5716 5715 5715 5716 5718 5718 5718 5719 5720 5721 5722 5724 5725 5727 5730 5734 5737 5740 5743 5746 5750 5753 5756 5759 5762 5764 5767 5771 5775 5778 5780 5782 5785 5788 5791 5795 5797 5798 5799 5801 5802 5803 5805 5806 5806 5807 5808 5809 5809 5810 5811 5813
5760 5758 5756 5755 5754 5751 5749 5746 5743 5740 5738 5735 5733 5730 5727 5725 5723 5721 5720 5719 5718 5717 5716 5716 5716 5715 5715 5714 5713 5713 5712 5712 5713 5713 5714 5714 5714 5715 5715 5716 5717 5718 5719 5719 5721 5722 5724 5727 5730 5732 5735 5738 5741 5745 5748 5751 5754 5757 5760 5763 5766 5768 5771 5774 5777 5780 5783 5785 5789 5791 5792 5794 5796 5797 5798 5800 5801 5802 5803 5804 5805 5805 5805 5807 5808
5757 5754 5752 5752 5751 5749 5747 5744 5742 5739 5736 5734 5732 5729 5726 5724 5722 5720 5719 5717 5716 5715 5715 5714 5714 5714 5713 5712 5711 5711 5710 5710 5711 5711 5712 5712 5712 5713 5713 5714 5716 5716 5716 5717 5718 5720 5723 5725 5726 5728 5731 5733 5737 5740 5743 5746 5749 5752 5755 5759 5760 5761 5765 5768 5771 5775 5777 5779 5782 5785 5787 5789 5791 5792 5793 5795 5796 5798 5799 5800 5800 5800 5801 5803 5804
5753 5751 5749 5748 5747 5746 5744 5742 5740 5737 5735 5732 5730 5728 5725 5722 5720 5719 5717 5716 5714 5714 5714 5713 5712 5712 5711 5710 5709 5709 5708 5708 5708 5709 5710 5710 5710 5711 5712 5712 5713 5713 5714 5715 5716 5717 5720 5722 5724 5726 5727 5729 5732 5735 5738 5740 5744 5748 5750 5753 5754 5756 5759 5763 5766 5769 5772 5774 5777 5779 5782 5784 5786 5787 5788 5790 5792 5793 5794 5795 5796 5796 5797 5799 5800
5750 5748 5747 5745 5744 5743 5741 5740 5738 5736 5733 5731 5729 5726 5724 5721 5719 5717 5716 5715 5714 5713 5713 5712 5711 5710 5710 5708 5707 5707 5706 5706 5706 5707 5708 5709 5709 5710 5710 5709 5708 5710 5712 5713 5714 5714 5716 5718 5721 5722 5724 5726 5728 5730 5732 5736 5740 5743 5745 5747 5749 5750 5753 5756 5760 5763 5766 5769 5772 5774 5776 5779 5781 5782 5783 5785 5787 5788 5789 5791 5793 5793 5794 5795 5795
5747 5745 5744 5743 5741 5740 5738 5737 5735 5733 5731 5729 5727 5725 5723 5720 5718 5716 5715 5714 5713 5713 5712 5711 5710 5709 5708 5707 5706 5705 5704 5704 5704 5705 5706 5707 5707 5708 5707 5706 5706 5708 5710 5711 5712 5713 5714 5715 5716 5718 5720 5721 5723 5724 5727 5731 5734 5736 5739 5742 5744 5745 5746 5750 5753 5757 5760 5763 5766 5769 5771 5774 5776 5777 5779 5781 5783 5784 5785 5787 5789 5789 5790 5791 5792
5744 5742 5741 5740 5739 5737 5736 5734 5733 5731 5729 5727 5725 5723 5721 5719 5717 5715 5713 5713 5712 5712 5711 5710 5708 5707 5706 5706 5704 5703 5702 5702 5702 5703 5703 5704 5705 5704 5704 5704 5705 5706 5708 5708 5708 5709 5710 5711 5712 5713 5715 5716 5718 5720 5723 5726 5728 5730 5733 5737 5738 5740 5742 5745 5748 5750 5753 5757 5761 5764 5767 5769 5771 5773 5775 5777 5778 5780 5781 5783 5784 5784 5785 5787 5788
5740 5739 5738 5737 5736 5735 5733 5732 5731 5729 5727 5724 5723 5721 5719 5717 5716 5714 5712 5711 5711 5711 5710 5709 5707 5705 5705 5704 5703 5701 5700 5700 5700 5701 5701 5702 5703 5701 5701 5701 5703 5704 5705 5706 5705 5704 5705 5707 5708 5710 5711 5713 5715 5717 5719 5721 5723 5725 5728 5731 5734 5736 5739 5742 5744 5746 5749 5753 5756 5759 5762 5764 5766 5768 5770 5772 5774 5776 5777 5778 5779 5779 5780 5782 5783
5736 5735 5734 5733 5732 5732 5731 5730 5728 5727 5724 5722 5720 5719 5717 5716 5714 5712 5711 5710 5710 5710 5709 5708 5706 5704 5704 5703 5702 5700 5699 5698 5698 5699 5699 5699 5700 5699 5699 5699 5700 5700 5702 5703 5703 5703 5703 5704 5706 5708 5710 5712 5713 5714 5716 5718 5720 5722 5724 5727 5730 5733 5736 5739 5741 5743 5745 5748 5752 5754 5757 5759 5761 5764 5766 5767 5769 5771 5773 5774 5774 5775 5776 5777 5778
5732 5730 5729 5728 5728 5728 5727 5726 5725 5724 5722 5720 5718 5716 5715 5713 5712 5711 5710 5708 5708 5708 5708 5706 5705 5703 5703 5702 5701 5700 5698 5697 5696 5696 5696 5697 5697 5697 5698 5698 5698 5698 5699 5699 5700 5700 5701 5702 5704 5706 5708 5709 5711 5712 5714 5715 5718 5720 5722 5725 5728 5731 5734 5737 5738 5739 5742 5744 5747 5749 5752 5754 5757 5759 5761 5762 5764 5766 5768 5770 5770 5771 5772 5773 5775
5727 5726 5725 5724 5724 5723 5723 5723 5722 5721 5719 5717 5716 5714 5713 5712 5710 5709 5708 5707 5706 5705 5705 5705 5703 5702 5702 5701 5700 5699 5698 5696 5695 5694 5694 5694 5695 5695 5696 5696 5697 5697 5697 5697 5697 5698 5698 5700 5701 5703 5705 5707 5708 5709 5711 5713 5715 5717 5720 5722 5725 5728 5731 5734 5735 5736 5737 5739 5742 5744 5747 5750 5753 5754 5756 5758 5759 5761 5763 5765 5766 5767 5768 5770 5771
5724 5723 5722 5721 5721 5720 5720 5720 5719 5718 5716 5715 5713 5712 5711 5710 5708 5707 5706 5705 5704 5703 5703 5702 5702 5701 5700 5700 5699 5698 5697 5696 5695 5693 5692 5692 5692 5693 5693 5694 5695 5695 5696 5696 5696 5696 5696 5697 5698 5700 5701 5703 5705 5707 5708 5710 5712 5714 5717 5719 5722 5724 5727 5729 5731 5732 5733 5735 5737 5740 5743 5746 5748 5749 5751 5753 5754 5756 5758 5760 5761 5762 5764 5766 5767
5721 5720 5719 5719 5718 5717 5717 5716 5716 5715 5714 5713 5711 5710 5709 5708 5707 5705 5704 5703 5702 5701 5701 5701 5700 5699 5699 5698 5698 5697 5696 5695 5694 5693 5692 5691 5690 5690 5691 5692 5692 5693 5694 5694 5695 5695 5695 5696 5696 5697 5699 5700 5702 5704 5705 5707 5709 5711 5714 5716 5718 5720 5723 5725 5727 5729 5730 5731 5734 5737 5739 5741 5743 5744 5746 5748 5750 5752 5753 5755 5756 5758 5760 5762 5763
5718 5717 5717 5717 5716 5714 5714 5713 5713 5712 5711 5710 5709 5708 5706 5705 5705 5703 5702 5702 5701 5700 5699 5699 5698 5698 5697 5697 5696 5695 5695 5694 5694 5692 5691 5690 5690 5689 5689 5689 5690 5691 5692 5692 5693 5693 5694 5694 5695 5696 5697 5699 5700 5702 5703 5705 5706 5708 5710 5712 5714 5716 5719 5721 5722 5724 5725 5728 5730 5732 5734 5736 5738 5740 5742 5744 5746 5747 5749 5750 5752 5753 5755 5757 5758
5716 5714 5714 5714 5713 5712 5711 5710 5710 5709 5708 5707 5706 5705 5704 5703 5702 5702 5701 5700 5699 5698 5697 5697 5697 5696 5696 5695 5694 5694 5693 5693 5693 5692 5691 5690 5689 5688 5687 5687 5688 5689 5689 5690 5690 5691 5692 5693 5694 5695 5696 5697 5698 5700 5701 5703 5704 5705 5707 5709 5710 5712 5714 5715 5717 5719 5721 5723 5725 5727 5729 5731 5733 5735 5738 5740 5741 5743 5744 5745 5747 5748 5750 5752 5754
5713 5711 5710 5711 5710 5709 5708 5708 5707 5707 5706 5705 5704 5703 5702 5701 5700 5699 5699 5698 5697 5696 5696 5695 5695 5694 5694 5694 5693 5693 5692 5691 5691 5691 5690 5689 5689 5688 5687 5686 5686 5687 5687 5687 5688 5688 5689 5691 5692 5693 5693 5694 5695 5697 5698 5700 5702 5703 5704 5706 5707 5708 5710 5711 5713 5715 5718 5720 5721 5723 5725 5727 5728 5730 5732 5734 5736 5738 5739 5741 5742 5744 5746 5748 5749
5710 5708 5708 5707 5707 5707 5706 5705 5705 5704 5703 5702 5701 5700 5700 5699 5698 5697 5697 5696 5695 5694 5693 5693 5693 5692 5692 5692 5692 5692 5691 5690 5690 5689 5689 5688 5688 5687 5687 5686 5686 5685 5685 5686 5686 5686 5687 5688 5689 5690 5691 5691 5692 5693 5695 5696 5698 5700 5701 5703 5704 5705 5706 5708 5709 5711 5714 5716 5717 5719 5721 5722 5724 5726 5727 5729 5731 5732 5734 5735 5736 5738 5740 5742 5743
5707 5706 5705 5704 5704 5704 5703 5702 5702 5702 5701 5700 5699 5698 5697 5697 5696 5696 5695 5694 5693 5692 5691 5691 5690 5690 5690 5689 5689 5689 5690 5689 5689 5688 5688 5687 5687 5686 5686 5685 5685 5685 5684 5684 5684 5685 5685 5686 5687 5687 5688 5688 5689 5690 5691 5693 5694 5696 5697 5699 5700 5702 5703 5704 5706 5707 5709 5711 5713 5714 5716 5718 5719 5721 5723 5724 5726 5727 5728 5729 5731 5732 5734 5736 5737
5703 5702 5701 5701 5701 5701 5700 5700 5699 5699 5699 5698 5697 5696 5695 5694 5693 5693 5693 5692 5691 5691 5690 5689 5688 5688 5687 5687 5687 5686 5687 5687 5687 5687 5686 5686 5686 5685 5685 5684 5684 5684 5683 5683 5683 5683 5684 5684 5685 5685 5685 5686 5687 5687 5688 5689 5690 5691 5693 5694 5696 5698 5699 5700 5702 5703 5705 5707 5708 5710 5711 5712 5714 5715 5717 5719 5720 5721 5723 5724 5726 5727 5728 5730 5732
5700 5699 5698 5697 5697 5697 5697 5697 5696 5696 5696 5695 5695 5694 5693 5692 5691 5690 5689 5689 5689 5689 5688 5687 5686 5686 5685 5684 5684 5684 5684 5683 5684 5684 5684 5684 5684 5684 5684 5684 5683 5682 5682 5682 5682 5682 5682 5683 5683 5683 5683 5684 5685 5685 5686 5687 5688 5688 5689 5690 5692 5693 5695 5697 5698 5699 5701 5702 5703 5705 5706 5708 5709 5710 5712 5713 5715 5716 5717 5718 5720 5721 5723 5724 5726
5697 5696 5695 5694 5694 5694 5694 5693 5693 5692 5692 5692 5692 5691 5690 5690 5689 5688 5687 5686 5686 5686 5687 5686 5685 5684 5683 5683 5682 5682 5681 5681 5681 5681 5681 5681 5682 5682 5682 5682 5682 5682 5681 5681 5681 5681 5681 5681 5682 5682 5682 5682 5683 5684 5684 5685 5686 5687 5687 5688 5689 5690 5691 5693 5694 5696 5697 5698 5700 5701 5702 5704 5705 5706 5707 5709 5710 5711 5712 5713 5715 5716 5718 5719 5720
5693 5692 5691 5691 5691 5690 5690 5690 5689 5689 5688 5688 5688 5688 5688 5687 5686 5686 5685 5684 5683 5683 5683 5683 5683 5682 5681 5681 5680 5680 5679 5679 5679 5679 5679 5679 5679 5679 5680 5680 5681 5681 5680 5680 5680 5680 5680 5680 5680 5680 5681 5681 5682 5682 5683 5683 5684 5685 5686 5686 5687 5688 5689 5690 5692 5693 5695 5696 5697 5698 5699 5700 5701 5703 5704 5705 5706 5707 5708 5710 5711 5712 5713 5714 5716
5689 5688 5688 5687 5687 5687 5687 5686 5686 5685 5685 5685 5685 5685 5685 5684 5683 5682 5682 5682 5681 5680 5679 5680 5680 5679 5679 5678 5678 5677 5677 5677 5676 5676 5676 5676 5676 5676 5677 5677 5678 5678 5679 5679 5679 5679 5678 5678 5678 5679 5679 5680 5680 5681 5681 5682 5682 5683 5684 5684 5684 5685 5687 5688 5690 5691 5691 5692 5693 5694 5695 5697 5698 5699 5700 5701 5703 5704 5705 5706 5707 5708 5709 5711 5712
5686 5685 5684 5684 5684 5684 5683 5683 5683 5682 5682 5681 5681 5681 5680 5680 5679 5679 5678 5678 5677 5677 5676 5676 5676 5676 5675 5675 5675 5675 5674 5674 5674 5674 5674 5673 5673 5673 5673 5673 5674 5675 5676 5677 5677 5677 5677 5677 5677 5677 5678 5678 5678 5679 5679 5680 5680 5681 5682 5682 5683 5683 5684 5686 5687 5687 5688 5689 5690 5691 5692 5693 5695 5696 5697 5698 5699 5700 5701 5702 5703 5704 5705 5707 5708
5682 5681 5681 5680 5680 5680 5680 5679 5679 5678 5677 5677 5676 5676 5676 5676 5675 5675 5674 5674 5673 5673 5673 5672 5672 5672 5672 5672 5672 5671 5671 5671 5671 5670 5670 5670 5670 5670 5670 5670 5670 5670 5671 5672 5673 5674 5674 5675 5675 5675 5676 5676 5676 5677 5677 5677 5678 5678 5679 5680 5680 5681 5682 5682 5683 5684 5685 5686 5687 5687 5688 5689 5690 5691 5692 5693 5694 5696 5697 5698 5699 5700 5701 5702 5703
5677 5677 5676 5676 5676 5676 5675 5675 5674 5673 5673 5673 5673 5672 5672 5672 5672 5671 5671 5670 5670 5669 5669 5669 5668 5669 5668 5668 5668 5668 5668 5668 5668 5667 5667 5667 5667 5667 5667 5666 5666 5666 5666 5667 5667 5668 5668 5669 5670 5671 5672 5673 5673 5674 5674 5674 5675 5675 5676 5676 5677 5677 5678 5679 5679 5680 5680 5681 5682 5683 5684 5684 5685 5686 5688 5689 5690 5691 5692 5693 5694 5695 5696 5697 5699
5674 5673 5672 5672 5672 5671 5671 5670 5669 5669 5669 5669 5669 5669 5669 5668 5668 5667 5667 5666 5666 5665 5664 5664 5664 5664 5664 5664 5664 5664 5664 5664 5664 5664 5664 5663 5663 5663 5663 5663 5663 5663 5662 5662 5662 5663 5663 5664 5665 5666 5667 5667 5668 5668 5669 5669 5670 5671 5672 5672 5673 5673 5674 5674 5675 5676 5676 5677 5678 5678 5679 5680 5681 5682 5683 5684 5685 5686 5687 5688 5689 5690 5691 5692 5694
5670 5669 5669 5668 5667 5667 5667 5666 5666 5665 5665 5665 5665 5665 5664 5664 5664 5663 5663 5662 5661 5661 5660 5660 5660 5660 5660 5660 5660 5660 5659 5659 5659 5659 5660 5660 5659 5659 5660 5660 5659 5659 5659 5658 5658 5658 5658 5659 5659 5660 5661 5661 5662 5662 5663 5663 5663 5664 5666 5667 5667 5668 5668 5669 5670 5671 5672 5672 5673 5674 5674 5675 5676 5677 5678 5679 5680 5681 5682 5683 5683 5684 5685 5686 5687
5666 5665 5665 5664 5663 5663 5662 5662 5662 5662 5662 5661 5660 5660 5660 5660 5660 5659 5658 5658 5657 5657 5656 5656 5656 5655 5655 5655 5655 5655 5654 5654 5654 5654 5654 5654 5654 5655 5655 5655 5655 5655 5655 5654 5654 5654 5654 5654 5655 5655 5656 5656 5656 5657 5657 5658 5658 5658 5659 5660 5661 5662 5662 5663 5664 5665 5666 5667 5667 5668 5669 5669 5670 5670 5671 5672 5674 5675 5676 5677 5678 5679 5679 5680 5681
5662 5661 5660 5660 5659 5659 5659 5659 5658 5658 5657 5657 5656 5656 5656 5655 5655 5654 5654 5653 5653 5652 5652 5651 5651 5650 5650 5650 5649 5649 5649 5649 5649 5649 5649 5649 5649 5649 5649 5649 5649 5649 5649 5649 5649 5649 5649 5649 5650 5650 5650 5651 5651 5651 5651 5652 5652 5652 5653 5653 5654 5655 5656 5657 5658 5659 5660 5660 5661 5662 5662 5663 5664 5664 5665 5666 5667 5668 5669 5670 5671 5672 5673 5674 5675
5657 5656 5656 5655 5655 5655 5655 5654 5654 5653 5653 5653 5652 5651 5651 5650 5650 5649 5649 5648 5648 5647 5646 5646 5645 5645 5644 5644 5643 5643 5643 5643 5643 5643 5643 5643 5643 5643 5643 5643 5643 5643 5643 5644 5644 5644 5643 5643 5644 5644 5645 5645 5645 5645 5645 5645 5645 5646 5646 5646 5647 5648 5649 5650 5651 5652 5653 5654 5655 5656 5656 5657 5657 5658 5659 5660 5661 5662 5663 5664 5665 5666 5667 5668 5669
5654 5653 5652 5652 5651 5651 5650 5650 5649 5649 5649 5648 5648 5647 5646 5646 5645 5644 5643 5643 5642 5641 5640 5640 5639 5639 5638 5637 5637 5637 5637 5636 5636 5636 5636 5637 5637 5637 5637 5637 5637 5637 5637 5637 5637 5637 5637 5637 5637 5638 5638 5638 5639 5639 5639 5639 5639 5639 5639 5640 5640 5641 5642 5643 5644 5645 5646 5647 5648 5649 5649 5650 5651 5652 5653 5653 5654 5655 5656 5657 5658 5660 5661 5662 5663
5651 5650 5649 5648 5647 5647 5646 5645 5645 5644 5644 5643 5643 5642 5641 5640 5640 5639 5638 5637 5636 5636 5635 5634 5633 5632 5632 5631 5631 5630 5630 5630 5629 5629 5629 5629 5629 5630 5630 5630 5630 5630 5630 5630 5630 5630 5630 5630 5630 5630 5631 5632 5632 5633 5633 5633 5633 5633 5633 5634 5634 5634 5635 5635 5636 5637 5638 5639 5640 5641 5642 5642 5643 5644 5645 5647 5647 5648 5649 5650 5651 5652 5653 5654 5655
5646 5646 5645 5644 5643 5642 5641 5641 5640 5639 5639 5638 5638 5637 5636 5635 5634 5633 5633 5632 5631 5630 5629 5628 5627 5626 5626 5625 5625 5624 5623 5623 5622 5622 5622 5622 5622 5622 5622 5622 5622 5623 5623 5623 5623 5622 5622 5622 5623 5623 5623 5624 5625 5626 5626 5626 5627 5627 5627 5627 5627 5628 5628 5628 5629 5629 5630 5631 5631 5632 5633 5634 5635 5636 5638 5639 5640 5641 5641 5643 5644 5645 5646 5647 5648
5641 5640 5639 5639 5638 5637 5636 5635 5635 5634 5633 5632 5632 5631 5630 5630 5629 5628 5627 5626 5625 5624 5623 5622 5621 5620 5619 5619 5618 5618 5617 5617 5616 5615 5615 5614 5614 5614 5614 5614 5614 5615 5615 5615 5615 5615 5615 5615 5616 5616 5616 5617 5617 5618 5618 5619 5619 5620 5620 5620 5620 5621 5621 5621 5622 5622 5623 5623 5624 5624 5625 5626 5626 5628 5629 5630 5631 5632 5633 5634 5635 5636 5638 5639 5640
5637 5636 5635 5634 5633 5632 5631 5630 5630 5629 5628 5626 5625 5624 5624 5623 5623 5622 5621 5619 5619 5618 5617 5617 5616 5614 5613 5612 5611 5610 5610 5609 5608 5608 5608 5607 5606 5606 5606 5606 5607 5607 5607 5608 5608 5608 5608 5608 5608 5608 5609 5609 5609 5609 5610 5610 5611 5612 5612 5612 5613 5613 5614 5614 5614 5615 5615 5616 5617 5617 5618 5619 5619 5620 5621 5622 5623 5624 5625 5626 5627 5628 5629 5631 5632
5633 5632 5631 5629 5628 5627 5626 5625 5625 5624 5622 5621 5619 5618 5617 5617 5616 5615 5614 5613 5612 5612 5611 5610 5609 5607 5606 5605 5604 5603 5602 5601 5600 5600 5600 5599 5599 5598 5598 5598 5599 5599 5599 5600 5601 5601 5601 5600 5600 5600 5600 5600 5600 5600 5601 5601 5602 5603 5603 5604 5604 5605 5606 5607 5607 5607 5608 5608 5609 5610 5611 5612 5612 5613 5614 5614 5615 5616 5617 5618 5619 5620 5621 5622 5623
5629 5628 5627 5626 5624 5623 5622 5621 5620 5619 5617 5616 5614 5613 5612 5611 5610 5609 5607 5606 5606 5605 5604 5602 5601 5600 5599 5598 5597 5595 5593 5592 5592 5591 5591 5591 5590 5590 5589 5589 5589 5590 5591 5591 5592 5593 5592 5592 5591 5591 5591 5591 5591 5592 5592 5593 5594 5594 5595 5595 5596 5596 5597 5598 5599 5599 5600 5600 5601 5602 5602 5603 5604 5605 5606 5607 5608 5608 5609 5610 5611 5612 5613 5614 5615